Matala Airport

Jump to: basic info | weather | runways | comments

Related pages: nearby airports | nearby navaids | notams | map

Basic information (top)

Codes: FN18
Location: lon -14.727500, lat 15.014000, elev 4,120 ft / 1,256 m msl
Status: small_airport

Weather (top)

Current conditions for Lubango Airport 84nm (156km) W (rec'd 2014/10/01 06:00Z):

FNUB 010600Z 08004KT CAVOK 14/11 Q1025

Airport forecast for Lubango Airport 84nm (156km) W (rec'd 2014/10/01 12:00Z):

TAF FNUB 011100Z 0112/0124 12005KT 9999 FEW020 SCT030 
      TEMPO 0112/0118 18010G20KT

Runways (top)

10/28: 8,015 x 98 ft (2,443 x 30 m) — paved — not lighted

Latest comments (top)

No comments yet for Matala Airport

More... (top)

See also NOTAMs and nearby airports and navaids, or visit the Matala Airport page at the main OurAirports website..